Regional Weather Roundup
Issued by NWS

Home | Current Version | Previous Version | Text Only | Print | Product List | Glossary Off
Versions: 1 2 3 4 5 6 7 8 9 10 11 12 13 14 15 16 17 18 19 20 21 22 23 24 25 26 27 28 29 30 31 32 33 34 35 36 37 38 39 40 41 42 43 44 45 46 47 48 49 50

000
ASUS43 KOAX 042310
RWRNE

WEATHER ROUNDUP FOR NEBRASKA
NATIONAL WEATHER SERVICE OMAHA NE
600 PM CDT TUE AUG 04 2015

NOTES: SATELLITE DATA IS BEING USED TO AUGMENT CLOUD COVER ABOVE
       12000 FEET.
       "FAIR" INDICATES FEW OR NO CLOUDS BELOW 12,000 FEET WITH NO
       SIGNIFICANT WEATHER AND/OR OBSTRUCTIONS TO VISIBILITY.

  * THESE STATIONS DO NOT REPORT WEATHER SUCH AS RAIN...SNOW OR FOG.

NEZ001>004-019>022-054>056-050000-
NEBRASKA PANHANDLE

CITY           SKY/WX    TMP DP  RH WIND       PRES   REMARKS
SCOTTSBLUFF    PTSUNNY   69  32  25 SE8       30.00F
ALLIANCE       PTSUNNY   73  62  68 SW13      29.99S
CHADRON        MOSUNNY   80  60  50 SW12      29.95R
KIMBALL        CLOUDY    72  57  59 SE10      30.03F
SIDNEY         PTSUNNY   74  59  59 SE9       30.03F
$$

NEZ057>060-069>072-079>082-050000-
SOUTHWEST NEBRASKA

CITY           SKY/WX    TMP DP  RH WIND       PRES   REMARKS
NORTH PLATTE   CLOUDY    67  63  87 SW9       29.96R
IMPERIAL       CLOUDY    70  61  73 SE8       29.97F
LEXINGTON      RAIN      66  65  96 SE10      29.90F
MCCOOK         CLOUDY    64  62  93 CALM      29.95F
OGALLALA       CLOUDY    72  63  72 SE8       29.98F
$$

NEZ005>010-023>029-035>040-094-050000-
NORTH CENTRAL NEBRASKA

CITY           SKY/WX    TMP DP  RH WIND       PRES   REMARKS
AINSWORTH      CLOUDY    76  66  72 E8        29.98R
BROKEN BOW     LGT RAIN  72  65  78 NE6       29.93R
O`NEILL        PTSUNNY   77  65  65 E12       29.97S
ORD            CLOUDY    78  67  68 E6        29.92R
THEDFORD       CLOUDY    74  64  70 E5        29.99R
$$

NEZ041-046>049-061>064-073>077-083>087-050000-
SOUTH CENTRAL NEBRASKA

CITY           SKY/WX    TMP DP  RH WIND       PRES   REMARKS
GRAND ISLAND   CLOUDY    69  61  75 SW30G46   29.98R
AURORA         CLOUDY    80  72  75 S8        29.95R
HASTINGS       TSTM      65  63  93 NW9G21    30.01R FOG
HEBRON         CLOUDY    73  63  69 S8        29.95S
HOLDREGE       CLOUDY    64  61  91 S5        29.96F
KEARNEY *      CLOUDY    64  59  82 S15       29.95F THUNDER
YORK           CLOUDY    81  73  78 S9        29.93S
$$

NEZ011>018-030>034-042>045-050000-
NORTHEAST NEBRASKA

CITY           SKY/WX    TMP DP  RH WIND       PRES   REMARKS
NORFOLK        PTSUNNY   77  65  66 E10       29.97R
ALBION         CLOUDY    72  65  77 E8        29.97R
BLAIR          PTSUNNY   76  66  71 E9        29.97R
COLUMBUS *     PTSUNNY   75  64  69 E9        29.96R
FREMONT        MOSUNNY   77  67  69 E10       29.97R
TEKAMAH        SUNNY     79  65  62 E6        29.97R
WAYNE          MOSUNNY   77  65  66 E8        29.98S
$$

NEZ050>053-065>068-078-088>093-050000-
SOUTHEAST NEBRASKA

CITY           SKY/WX    TMP DP  RH WIND       PRES   REMARKS
LINCOLN        PTSUNNY   84  68  58 S8        29.93R
OMAHA EPPLEY   PTSUNNY   78  68  71 E12       29.95S
BEATRICE       PTSUNNY   78  68  72 S8        29.93F
FALLS CITY     CLOUDY    79  72  79 S10       29.94R
NEBRASKA CITY  PTSUNNY   82  70  68 S12G20    29.93R
PLATTSMOUTH    PTSUNNY   78  71  78 NE3       29.94S
$$

NEZ044-045-051>053-067-050000-
OMAHA AREA

CITY           SKY/WX    TMP DP  RH WIND       PRES   REMARKS
OMAHA EPPLEY   PTSUNNY   78  68  71 E12       29.95S
BLAIR          PTSUNNY   76  66  71 E9        29.97R
FREMONT        MOSUNNY   77  67  69 E10       29.97R
MILLARD        PTSUNNY   78  69  73 NE3       29.95R
OFFUTT AFB     PTSUNNY   76  70  81 NE12      29.94S
PLATTSMOUTH    PTSUNNY   78  71  78 NE3       29.94S
WAHOO          FAIR      77  68  74 NE10      29.95S
$$



USA.gov is the U.S. government's official web portal to all federal, state and local government web resources and services.